Location: Unspecified
(52.2874°N, 20.9955°E)
Time: 19:31:55
(UTC+02:00)

ISS - Visible Passes

Search period start: 24 August 2019 00:00
Search period end: 03 September 2019 00:00
Orbit: 410 x 421 km, 51.6° (Epoch: 25 August)

Date Brightness Start Highest point End Pass type
(mag) Time Alt. Az. Time Alt. Az. Time Alt. Az.
29 Aug -1.3 04:50:53 10° S 04:52:58 16° SE 04:55:04 10° ESE visible
30 Aug -1.0 04:03:43 10° SSE 04:04:25 10° SE 04:05:07 10° SE visible
31 Aug -2.3 04:48:48 10° SSW 04:51:44 29° SSE 04:54:40 10° E visible
01 Sep -1.9 04:01:51 17° S 04:03:04 21° SE 04:05:38 10° E visible
02 Sep -1.3 03:14:59 14° SE 03:14:59 14° SE 03:16:21 10° ESE visible
02 Sep -3.2 04:47:52 14° SW 04:50:35 48° SSE 04:53:50 10° E visible
